📊 Raw Sensor Data
Showing records 32801 to 32825 of 84,731 total
| ID | Distance (ft) | Battery V | Battery A | Int Temp (°F) | Int Humid (%) | Ext Temp (°F) | Solar V | RSSI | SNR | Time Stamp |
|---|---|---|---|---|---|---|---|---|---|---|
| 51943 | 14.7 | 4.01 | -5 | 58 | 44 | 59 | 0.00 | -72 | 7 | 09/14/2025 03:45 AM |
| 51942 | 14.7 | 4.01 | -5 | 58 | 44 | 59 | 0.00 | -72 | 7 | 09/14/2025 03:30 AM |
| 51941 | 14.7 | 4.01 | -5 | 58 | 44 | 59 | 0.00 | -74 | 7 | 09/14/2025 03:15 AM |
| 51940 | 14.7 | 4.01 | -5 | 57 | 44 | 59 | 0.00 | -71 | 7 | 09/14/2025 03:00 AM |
| 51939 | 14.7 | 3.96 | -5 | 57 | 44 | 59 | 0.00 | -70 | 7 | 09/14/2025 02:45 AM |
| 51938 | 14.7 | 3.95 | -5 | 57 | 44 | 58 | 0.00 | -70 | 8 | 09/14/2025 02:30 AM |
| 51937 | 14.7 | 4.01 | -5 | 57 | 44 | 59 | 0.00 | -71 | 6 | 09/14/2025 02:15 AM |
| 51936 | 14.7 | 4.01 | -5 | 56 | 44 | 58 | 0.00 | -71 | 8 | 09/14/2025 02:00 AM |
| 51935 | 14.7 | 3.96 | -5 | 56 | 45 | 58 | 0.00 | -71 | 7 | 09/14/2025 01:45 AM |
| 51934 | 14.7 | 3.96 | -5 | 56 | 45 | 56 | 0.00 | -71 | 8 | 09/14/2025 01:30 AM |
| 51933 | 14.7 | 3.96 | -5 | 56 | 45 | 57 | 0.00 | -71 | 8 | 09/14/2025 01:15 AM |
| 51932 | 14.7 | 4.02 | -5 | 57 | 45 | 58 | 0.00 | -70 | 8 | 09/14/2025 01:00 AM |
| 51931 | 14.7 | 4.02 | -5 | 57 | 45 | 59 | 0.10 | -71 | 7 | 09/14/2025 12:45 AM |
| 51930 | 14.7 | 3.96 | -5 | 58 | 45 | 59 | 0.00 | -71 | 8 | 09/14/2025 12:30 AM |
| 51929 | 14.7 | 3.96 | -5 | 58 | 45 | 59 | 0.00 | -71 | 8 | 09/14/2025 12:15 AM |
| 51928 | 14.7 | 3.96 | -5 | 58 | 45 | 60 | 0.00 | -72 | 7 | 09/14/2025 12:00 AM |
| 51927 | 14.7 | 3.96 | -5 | 58 | 45 | 59 | 0.00 | -71 | 8 | 09/13/2025 11:45 PM |
| 51926 | 14.7 | 3.96 | -5 | 58 | 46 | 60 | 0.00 | -71 | 8 | 09/13/2025 11:30 PM |
| 51925 | 14.7 | 4.02 | -5 | 59 | 45 | 59 | 0.00 | -69 | 8 | 09/13/2025 11:15 PM |
| 51924 | 14.7 | 4.02 | -5 | 60 | 45 | 61 | 0.10 | -72 | 8 | 09/13/2025 11:00 PM |
| 51923 | 14.7 | 4.02 | -5 | 60 | 46 | 61 | 0.00 | -69 | 8 | 09/13/2025 10:45 PM |
| 51922 | 14.7 | 3.97 | -5 | 61 | 46 | 61 | 0.00 | -72 | 7 | 09/13/2025 10:30 PM |
| 51921 | 14.7 | 3.97 | -5 | 61 | 46 | 62 | 0.00 | -71 | 8 | 09/13/2025 10:15 PM |
| 51920 | 14.7 | 3.97 | -5 | 62 | 46 | 63 | 0.00 | -73 | 9 | 09/13/2025 10:00 PM |
| 51919 | 14.7 | 3.97 | -5 | 62 | 47 | 63 | 0.00 | -72 | 8 | 09/13/2025 09:45 PM |